Tracking 19192 objects as of 21-Jun-2018
HD Live streaming from Space Station
objects crossing your sky now

FENGYUN 1C DEB

Track FENGYUN 1C DEB now!
10-day predictions


NORAD ID: 30999
Int'l Code: 1999-025BCR
Perigee: 650.8 km
Apogee: 846.8 km
Inclination: 99.0 °
Period: 99.6 minutes
Semi major axis: 7119 km
RCS: 0.0123 m2 (small)
Launch date: May 10, 1999
Source: People's Republic of China (PRC)
Launch site: Taiyaun Space Center, China (TSC)

Note: This is SATELLITE DEBRIS
aabbcc
Your satellite tracking list
Your tracking list is empty




NASA's NSSDC Master Catalog

Two Line Element Set (TLE):
1 30999U 99025BCR 18172.02154904  .00000223  00000-0  71404-4 0  9996
2 30999  99.0332 108.7754 0137666 214.1329 145.0952 14.45102742593116
Source of the keplerian elements: AFSPC